Le nostre stazioni meteo in Italia

Pubblicità
Il mio iltempo24.it
Dunstaffnage, Gran Bretagna (99006): Temperatura & dewpoint: 22.05.2018 08:00:00 - 28.05.2018 08:00:00 (BST)Dunstaffnage, Gran Bretagna (99006): Temperatura -20cm: 22.05.2018 08:00:00 - 28.05.2018 08:00:00 (BST)Dunstaffnage, Gran Bretagna (99006): velocità del vento & gusts: 22.05.2018 08:00:00 - 28.05.2018 08:00:00 (BST)Dunstaffnage, Gran Bretagna (99006): direzione del vento: 22.05.2018 08:00:00 - 28.05.2018 08:00:00 (BST)Dunstaffnage, Gran Bretagna (99006): precipitazioni: 22.05.2018 08:00:00 - 28.05.2018 08:00:00 (BST)
Data & Tempo tt [°C] td [°C] tt -20cm [°C] ff [km/h] ff [kn] fx [km/h] fx [kn] dd rr [mm]
28.05.2018 08:00:00 15,8 10,0 - 5 3 - - NE 0,0
28.05.2018 07:00:00 13,2 9,7 - 2 1 - - E 0,0
28.05.2018 06:00:00 10,6 9,0 - 2 1 - - N 0,0
28.05.2018 05:00:00 10,3 7,7 - 4 2 - - OSO 0,0
28.05.2018 04:00:00 11,9 8,0 - 4 2 - - O 0,0
28.05.2018 03:00:00 12,6 8,1 - 2 1 - - SE 0,0
28.05.2018 02:00:00 17,1 8,8 - 16 9 - - ESE 0,0
28.05.2018 01:00:00 15,7 8,2 - 11 6 - - ESE 0,0
28.05.2018 00:00:00 16,4 8,1 - 16 9 - - ENE 0,0
27.05.2018 23:00:00 17,9 8,2 - 18 10 - - E 0,0
27.05.2018 22:00:00 19,3 8,8 - 24 13 - - ESE 0,0
27.05.2018 21:00:00 20,1 9,4 - 22 12 - - E 0,0
27.05.2018 20:00:00 21,7 9,6 - 22 12 - - ESE 0,0
27.05.2018 19:00:00 22,3 9,8 - 29 16 - - E 0,0
27.05.2018 18:00:00 23,8 10,2 - 24 13 50 27 ESE 0,0
27.05.2018 17:00:00 23,1 10,1 - 28 15 55 30 ESE 0,0
27.05.2018 16:00:00 24,0 10,7 - 34 18 48 26 E 0,0
27.05.2018 15:00:00 23,3 11,0 - 26 14 54 29 ESE 0,0
27.05.2018 14:00:00 24,0 11,6 - 34 18 59 32 ESE 0,0
27.05.2018 13:00:00 23,2 11,4 - 35 19 61 33 E 0,0
27.05.2018 12:00:00 22,6 10,8 - 39 21 67 36 E 0,0
27.05.2018 11:00:00 20,5 9,7 - 26 14 50 27 ESE 0,0
27.05.2018 10:00:00 21,2 10,7 14,7 28 15 - - E 0,0
27.05.2018 09:00:00 18,8 9,4 - 28 15 - - E 0,0
27.05.2018 08:00:00 17,2 8,0 - 24 13 - - E 0,0
27.05.2018 07:00:00 16,5 7,5 - 18 10 - - ESE 0,0
27.05.2018 06:00:00 15,1 7,1 - 22 12 - - E 0,0
27.05.2018 05:00:00 14,3 6,6 - 13 7 - - ESE 0,0
27.05.2018 04:00:00 12,2 6,2 - 2 1 - - SSE 0,0
27.05.2018 03:00:00 13,2 7,2 - 4 2 - - ENE 0,0
27.05.2018 02:00:00 14,8 6,1 - 13 7 - - E 0,0
27.05.2018 01:00:00 16,7 5,9 - 28 15 - - E 0,0
27.05.2018 00:00:00 16,7 6,8 - 11 6 - - N 0,0
26.05.2018 23:00:00 17,4 6,6 - 8 4 - - NO 0,0
26.05.2018 22:00:00 19,2 6,4 - 4 2 - - S 0,0
26.05.2018 21:00:00 19,9 7,7 - 28 15 - - E 0,0
26.05.2018 20:00:00 22,2 9,6 - 18 10 - - E 0,0
26.05.2018 19:00:00 22,0 8,5 - 22 12 - - E 0,0
26.05.2018 18:00:00 23,7 9,5 - 26 14 - - E 0,0
26.05.2018 17:00:00 21,9 9,4 - 24 13 - - E 0,0
26.05.2018 16:00:00 23,4 9,5 - 29 16 - - E 0,0
26.05.2018 15:00:00 23,1 10,1 - 22 12 - - E 0,0
26.05.2018 14:00:00 22,9 10,0 - 8 4 - - SE 0,0
26.05.2018 13:00:00 22,3 11,6 - 9 5 - - N 0,0
26.05.2018 12:00:00 17,4 10,2 - 9 5 - - NO 0,0
26.05.2018 11:00:00 18,0 10,7 - 4 2 - - NO 0,0
26.05.2018 10:00:00 17,1 10,2 14,5 11 6 - - N 0,0
26.05.2018 09:00:00 15,7 10,8 - 5 3 - - E 0,0
26.05.2018 08:00:00 13,5 8,3 - 9 5 - - N 0,0
26.05.2018 07:00:00 12,7 8,6 - 5 3 - - E 0,0
26.05.2018 06:00:00 10,8 7,2 - 5 3 - - ESE 0,0
26.05.2018 05:00:00 11,0 6,9 - 4 2 - - ENE 0,0
26.05.2018 04:00:00 11,0 7,0 - 2 1 - - OSO 0,0
26.05.2018 03:00:00 12,1 7,2 - 8 4 - - NE 0,0
26.05.2018 02:00:00 11,8 7,5 - 13 7 - - N 0,0
26.05.2018 01:00:00 12,9 7,4 - 13 7 - - NNE 0,0
26.05.2018 00:00:00 13,6 8,4 - 5 3 - - E 0,0
25.05.2018 23:00:00 15,0 8,8 - 9 5 - - NE 0,0
25.05.2018 22:00:00 16,9 9,6 - 8 4 - - NNE 0,0
25.05.2018 21:00:00 17,6 10,0 - 4 2 - - E 0,0
25.05.2018 20:00:00 18,8 10,6 - 4 2 - - E 0,0
25.05.2018 19:00:00 20,5 11,3 - 5 3 - - NNE 0,0
25.05.2018 18:00:00 21,4 10,7 - 11 6 - - N 0,0
25.05.2018 17:00:00 21,2 11,0 - 11 6 - - NNE 0,0
25.05.2018 16:00:00 20,8 10,5 - 15 8 - - N 0,0
25.05.2018 15:00:00 22,7 11,2 - 13 7 - - N 0,0
25.05.2018 14:00:00 22,6 11,0 - 9 5 - - N 0,0
25.05.2018 13:00:00 21,3 10,6 - 13 7 - - N 0,0
25.05.2018 12:00:00 20,3 11,1 - 11 6 - - NNO 0,0
25.05.2018 11:00:00 18,0 12,8 - 11 6 - - O 0,0
25.05.2018 10:00:00 16,3 11,9 14,0 9 5 - - O 0,0
25.05.2018 09:00:00 14,2 10,5 - 4 2 - - O 0,0
25.05.2018 08:00:00 12,7 10,6 - 5 3 - - O 0,0
25.05.2018 07:00:00 10,7 10,0 - 2 1 - - ENE 0,0
25.05.2018 06:00:00 9,1 8,6 - 4 2 - - NE 0,0
25.05.2018 05:00:00 8,4 7,8 - 4 2 - - SO 0,0
25.05.2018 04:00:00 8,5 7,8 - 2 1 - - SO 0,0
25.05.2018 03:00:00 8,6 7,7 - 2 1 - - S 0,0
25.05.2018 02:00:00 9,3 8,0 - 0 0 - - N 0,0
25.05.2018 01:00:00 10,6 8,5 - 2 1 - - S 0,0
25.05.2018 00:00:00 12,3 9,2 - 8 4 - - SSO 0,0
24.05.2018 23:00:00 12,6 9,2 - 13 7 - - SSO 0,0
24.05.2018 22:00:00 13,2 9,2 - 9 5 - - O 0,0
24.05.2018 21:00:00 14,4 9,1 - 13 7 - - SO 0,0
24.05.2018 20:00:00 21,9 9,2 - 4 2 - - O 0,0
24.05.2018 19:00:00 21,6 9,8 - 5 3 - - ONO 0,0
24.05.2018 18:00:00 21,7 10,0 - 11 6 - - O 0,0
24.05.2018 17:00:00 19,8 9,8 - 9 5 - - O 0,0
24.05.2018 16:00:00 20,5 12,1 - 11 6 - - ONO 0,0
24.05.2018 15:00:00 21,0 12,5 - 11 6 - - O 0,0
24.05.2018 14:00:00 20,0 12,0 - 13 7 - - O 0,0
24.05.2018 13:00:00 19,7 12,9 - 11 6 - - O 0,0
24.05.2018 12:00:00 18,2 11,5 - 11 6 - - ONO 0,0
24.05.2018 11:00:00 18,9 11,3 - 15 8 - - E 0,0
24.05.2018 10:00:00 16,6 10,1 13,0 18 10 - - E 0,0
24.05.2018 09:00:00 14,0 9,0 - 18 10 - - E 0,0
24.05.2018 08:00:00 12,4 7,8 - 22 12 - - E 0,0
24.05.2018 07:00:00 11,3 7,2 - 24 13 - - E 0,0
24.05.2018 06:00:00 10,0 6,9 - 15 8 - - E 0,0
24.05.2018 05:00:00 10,5 6,9 - 22 12 - - E 0,0
24.05.2018 04:00:00 11,6 7,0 - 24 13 - - ESE 0,0
24.05.2018 03:00:00 12,2 7,3 - 22 12 - - ESE 0,0
24.05.2018 02:00:00 11,3 8,1 - 11 6 - - ENE 0,0
24.05.2018 01:00:00 13,7 7,9 - 18 10 - - ESE 0,0
24.05.2018 00:00:00 11,8 8,3 - 8 4 - - E 0,0
23.05.2018 23:00:00 12,7 8,0 - 11 6 - - ESE 0,0
23.05.2018 22:00:00 14,1 9,2 - 9 5 - - SSE 0,0
23.05.2018 21:00:00 14,5 7,3 - 5 3 - - ENE 0,0
23.05.2018 20:00:00 18,0 8,4 - 8 4 - - OSO 0,0
23.05.2018 19:00:00 18,6 9,5 - 9 5 - - ONO 0,0
23.05.2018 18:00:00 19,3 11,0 - 9 5 - - O 0,0
23.05.2018 17:00:00 17,7 10,7 - 15 8 - - ONO 0,0
23.05.2018 16:00:00 19,1 11,1 - 15 8 - - O 0,0
23.05.2018 15:00:00 17,5 10,4 - 11 6 - - ONO 0,0
23.05.2018 14:00:00 18,7 12,1 - 8 4 - - NNO 0,0
23.05.2018 13:00:00 15,4 9,6 - 11 6 - - NNO 0,0
23.05.2018 12:00:00 15,5 9,2 - 9 5 - - NNO 0,0
23.05.2018 11:00:00 16,4 9,8 - 8 4 - - E 0,0
23.05.2018 10:00:00 14,8 9,2 12,0 13 7 - - E 0,0
23.05.2018 09:00:00 13,3 9,0 - 13 7 - - E 0,0
23.05.2018 08:00:00 11,2 9,6 - 13 7 - - E 0,0
23.05.2018 07:00:00 8,3 8,0 - 2 1 - - E 0,0
23.05.2018 06:00:00 6,3 5,8 - 2 1 - - ESE 0,0
23.05.2018 05:00:00 6,6 6,0 - 4 2 - - SSO 0,0
23.05.2018 04:00:00 7,5 6,6 - 2 1 - - SSO 0,0
23.05.2018 03:00:00 9,2 8,3 - 2 1 - - S 0,0
23.05.2018 02:00:00 10,1 9,0 - 2 1 - - S 0,0
23.05.2018 01:00:00 10,4 9,0 - 4 2 - - O 0,0
23.05.2018 00:00:00 10,7 9,1 - 2 1 - - OSO 0,0
22.05.2018 23:00:00 11,4 9,3 - 2 1 - - SSE 0,0
22.05.2018 22:00:00 11,9 8,5 - 2 1 - - S 0,0
22.05.2018 21:00:00 12,5 8,5 - 4 2 - - ENE 0,0
22.05.2018 20:00:00 13,2 8,9 - 4 2 - - ONO 0,0
22.05.2018 19:00:00 13,5 8,5 - 9 5 - - N 0,0
22.05.2018 18:00:00 13,7 8,1 - 13 7 - - N 0,0
22.05.2018 17:00:00 14,8 8,7 - 11 6 - - N 0,0
22.05.2018 16:00:00 12,8 7,4 - 11 6 - - N 0,0
22.05.2018 15:00:00 12,7 7,5 - 9 5 - - NNE 0,0
22.05.2018 14:00:00 13,6 8,6 - 5 3 - - N 0,0
22.05.2018 13:00:00 12,9 7,9 - 4 2 - - N 0,0
22.05.2018 12:00:00 11,2 7,7 - 4 2 - - NNE 0,0
22.05.2018 11:00:00 10,0 6,8 - 8 4 - - NNE 0,0
22.05.2018 10:00:00 9,6 6,4 11,7 8 4 - - N 0,0
22.05.2018 09:00:00 9,2 6,1 - 9 5 - - N 0,0
22.05.2018 08:00:00 8,9 6,0 - 9 5 - - N 0,0

tt = Temperatura
td = dewpoint
tt -20cm = Temperatura -20cm
ff = velocità del vento
fx = gusts
dd = direzione del vento
rr = precipitazioni

Stazioni seguenti

WeatherPro
AMSI
MeteoEarth